Location: Mount Kobau Star Party
(49.1167°N, 119.7333°W)
Time: 13:01:32
(UTC-07:00)

ACS3 Solar Sail - Pass Details

Date: 21 June 2024
Orbit: 992 x 1023 km, 97.4° (Epoch: 12 July)

Event Time Altitude Azimuth Distance (km) Brightness Sun altitude
Exits shadow 22:27:34 - 170° (S) 2,866 6.7 -9.8°
Reaches altitude 10° 22:27:51 10° 170° (S) 2,759 6.6 -9.8°
Maximum altitude 22:34:05 80° 258° (WSW) 1,013 5.0 -10.4°
Drops below altitude 10° 22:40:20 10° 346° (NNW) 2,766 8.5 -11.0°
Sets 22:42:49 0° 347° (NNW) 3,718 9.4 -11.2°
